Location: Beau Repaire
(50.6144°N, 4.0551°E)
Time: 20:30:47
(UTC+00:00)

Cosmos 1536 - Pass Details

Date: 15 May 2026
Orbit: 482 x 500 km, 82.5° (Epoch: 8 June)

Event Time Altitude Azimuth Distance (km) Brightness Sun altitude
Rises 23:05:36 0° 338° (NNW) 2,571 7.7 -19.9°
Reaches altitude 10° 23:08:01 10° 323° (NW) 1,688 6.2 -20.0°
Maximum altitude 23:10:55 22° 271° (W) 1,114 4.4 -20.0°
Enters shadow 23:11:43 21° 252° (WSW) 1,167 4.4 -20.1°
